Wind_Speed
12 11 11 11 10 8 7 6 5 4 4 4 4 4 4 4 4 5 5 6 6 7 8 8 8 8 8 9 9 8 8 8 8 8 8 8 8 7 7 7 8 8 8
12 11 11 11 10 9 8 7 5 4 5 4 4 4 4 5 5 5 5 6 7 7 7 8 8 8 8 8 8 8 8 8 8 8 8 8 8 8 9 9 9 8 8
12 12 12 11 10 9 8 7 6 5 5 5 4 4 5 5 5 5 6 6 7 7 7 8 8 8 8 8 8 8 8 8 8 8 9 9 9 10 10 10 9 9 9
12 12 12 11 11 10 9 8 7 6 6 5 5 5 6 6 6 6 7 7 7 8 8 8 8 8 8 7 8 8 8 9 9 9 9 10 10 11 11 11 10 10 10
12 12 12 12 11 10 9 8 8 7 6 6 7 7 7 7 7 7 7 8 8 8 8 8 8 8 8 8 8 8 8 9 9 10 10 10 11 11 11 11 11 11 11
12 13 13 12 12 10 9 9 8 8 8 8 8 8 8 8 8 8 8 8 8 9 9 9 9 9 8 8 8 8 9 10 10 10 11 11 12 12 12 12 11 11 12
13 13 12 12 12 11 10 9 9 9 9 9 9 9 9 8 8 8 9 9 9 9 9 9 9 9 9 9 9 9 10 10 11 11 12 12 13 13 13 13 13 13 13
13 13 13 12 12 11 11 10 10 9 9 10 10 10 10 9 10 10 10 10 10 11 11 11 10 10 10 10 10 10 11 11 11 12 12 13 14 14 14 14 14 14 13
14 14 13 13 13 12 11 11 11 11 11 11 11 10 11 11 11 12 12 12 12 12 12 12 11 11 11 11 11 11 12 12 12 12 13 13 14 14 14 14 14 14 14
13 13 13 13 12 12 12 12 12 12 12 11 11 11 11 11 11 13 13 13 14 13 13 13 12 12 12 12 12 12 13 13 13 14 14 14 14 15 15 15 15 15 15
13 12 12 12 12 12 12 11 12 12 12 12 12 12 12 13 13 13 14 14 15 15 14 14 14 13 13 13 14 14 15 15 15 15 15 15 15 16 16 16 16 16 16
12 12 12 12 12 12 12 12 12 11 11 12 12 13 13 14 14 15 15 16 16 16 15 15 15 15 15 15 16 16 16 16 16 16 16 16 17 17 17 17 17 17 18
12 12 11 12 12 12 12 12 12 11 12 13 13 14 14 15 16 16 17 17 17 17 17 16 17 17 17 17 17 17 17 18 18 18 18 18 18 18 19 19 19 19 20
11 11 12 12 12 12 13 13 13 13 13 14 15 15 15 16 17 17 17 17 17 18 18 18 18 18 18 18 19 19 19 19 19 20 20 20 20 20 21 21 21 21 22
12 13 13 13 13 14 14 14 14 14 14 15 15 15 15 15 16 17 17 18 18 19 19 19 19 19 20 19 19 20 20 20 21 21 21 21 22 22 22 23 23 23 24
13 14 14 14 15 15 15 14 14 15 15 15 16 16 16 17 17 17 18 19 19 19 20 20 20 21 21 21 21 22 22 22 22 22 22 22 23 24 24 25 25 26 26
13 14 14 15 15 16 15 15 16 16 16 17 17 17 18 18 19 19 20 20 20 21 21 21 21 22 23 23 23 23 23 23 24 24 24 24 25 26 27 28 28 28 29
14 14 15 15 16 16 16 17 17 18 18 18 18 18 19 20 20 20 21 21 21 21 22 22 23 23 24 24 24 24 24 25 25 26 26 26 27 28 28 29 30 31 31
14 15 16 17 17 17 18 18 18 19 20 20 19 20 20 21 21 21 22 22 22 22 23 24 24 24 24 25 25 26 26 27 27 28 28 29 29 30 30 31 32 33 34
17 18 18 19 19 19 19 19 19 19 20 20 21 21 21 22 22 22 23 23 23 23 24 24 24 25 25 26 27 28 28 29 30 30 30 31 32 33 33 34 35 35 36
19 20 20 20 20 20 20 21 21 21 21 21 21 22 22 22 23 23 24 24 24 25 25 25 26 27 27 28 29 30 30 31 31 32 32 33 34 35 35 36 37 38 38
20 20 21 21 21 21 21 22 22 22 22 22 23 23 23 24 24 25 25 25 25 26 26 27 28 29 29 30 31 31 32 33 34 34 34 35 35 37 38 38 39 40 41
21 21 21 22 22 22 22 23 23 24 24 25 25 25 25 26 26 26 26 27 27 27 28 29 30 30 31 32 33 33 34 35 36 36 37 37 38 39 40 40 41 42 42
22 23 23 22 23 23 24 25 25 26 26 27 27 27 27 27 27 28 28 29 29 30 31 32 32 33 33 34 35 35 36 36 37 38 39 39 40 40 41 42 43 43 44
23 23 24 24 24 25 25 26 26 27 27 28 28 29 29 29 29 30 30 31 32 33 33 34 34 35 35 36 36 37 37 38 39 40 41 41 42 42 43 44 44 45 45
24 25 25 25 26 26 27 27 28 28 28 29 30 30 31 31 31 31 32 32 33 34 34 35 36 36 36 37 38 39 39 40 41 42 42 43 43 44 45 46 46 47 47
Wind_Direction
229 229 229 228 230 229 234 241 244 246 252 264 273 282 291 301 310 315 322 334 345 349 350 351 353 356 360 4 7 8 8 7 4 2 1 359 356 350 343 337 330 321 312
233 230 231 229 227 227 231 237 238 249 255 261 269 278 289 299 303 311 318 325 334 339 344 347 348 349 352 355 359 4 5 4 1 358 357 355 355 355 352 345 338 329 319
230 229 229 224 223 227 230 234 240 250 256 259 265 275 285 292 300 307 311 317 324 328 334 337 339 342 344 345 349 352 357 355 354 353 352 350 348 346 344 342 339 332 327
230 226 223 221 221 225 231 236 244 250 254 257 266 274 282 289 295 301 306 312 317 322 324 328 332 336 337 337 340 342 343 345 346 345 345 344 343 343 341 338 335 329 325
231 227 223 222 224 227 232 240 245 247 252 260 263 270 276 283 291 299 304 309 313 316 317 318 323 327 329 329 331 333 334 334 334 336 338 339 338 339 338 334 330 324 319
230 228 228 227 229 231 235 242 248 250 254 259 263 266 273 281 287 294 302 305 309 312 311 311 314 317 318 320 321 322 324 325 326 328 330 330 331 331 331 329 327 321 317
230 230 230 230 232 234 237 243 251 255 258 255 260 265 273 279 285 291 296 300 302 305 306 307 311 314 313 313 314 313 316 319 321 323 324 324 324 323 322 322 322 318 315
234 232 231 231 233 237 241 248 254 257 256 255 260 267 270 277 285 290 292 295 297 299 300 303 305 308 307 308 309 308 309 313 316 318 319 319 319 319 318 318 318 315 314
237 236 235 235 239 242 247 253 257 259 257 259 263 271 270 275 284 287 288 291 293 294 296 298 301 301 303 304 306 307 306 308 311 313 314 316 317 317 316 316 317 316 313
241 237 238 240 242 247 253 256 259 261 257 259 265 271 274 278 281 284 287 288 288 289 292 293 296 297 300 301 302 302 302 304 306 308 310 313 315 317 316 315 316 316 315
242 240 239 241 245 250 253 257 259 258 257 261 266 270 275 278 281 285 287 287 287 287 288 288 290 292 295 296 298 299 298 300 302 304 306 309 311 313 314 313 313 313 312
242 243 244 247 247 250 254 258 260 260 262 264 268 271 274 278 281 283 285 286 286 286 285 285 286 289 291 294 295 297 297 298 299 302 304 306 308 310 310 310 310 310 310
244 245 246 248 250 253 257 259 261 259 266 268 269 272 276 279 281 282 284 284 285 285 284 284 286 288 291 293 294 295 295 295 296 298 300 302 304 306 307 307 307 307 306
246 248 247 247 252 257 260 262 262 262 267 272 272 273 276 279 281 282 284 285 284 284 284 285 286 288 290 292 292 293 293 293 294 295 297 298 300 301 303 304 304 305 305
248 251 250 250 255 260 262 264 265 266 270 272 274 277 280 283 284 284 285 286 285 283 284 285 286 288 290 291 292 293 293 293 293 294 295 297 299 300 301 302 303 303 303
252 253 253 256 261 264 265 267 268 268 270 272 275 277 280 283 285 286 286 287 288 286 285 285 285 286 288 290 291 292 293 292 292 293 294 296 297 298 299 300 301 302 302
256 256 255 261 265 267 267 268 269 270 271 273 275 278 279 282 284 285 287 287 287 286 286 286 286 287 288 289 290 291 292 292 292 293 294 295 296 297 298 299 299 300 301
259 261 261 262 266 268 268 269 270 271 272 273 276 278 280 283 285 286 286 286 287 286 285 285 286 287 288 288 290 290 291 292 292 292 292 294 296 296 297 298 299 300 301
263 264 266 268 270 269 270 271 272 271 272 274 277 279 281 283 284 285 285 286 287 287 287 287 287 288 289 290 291 291 291 292 292 292 292 294 295 296 297 298 299 299 299
267 267 268 270 272 271 271 273 273 273 273 275 278 279 280 281 282 283 284 285 285 287 288 289 289 288 289 290 290 291 291 292 292 293 292 293 295 296 296 297 298 298 299
267 267 268 271 272 272 272 272 274 275 276 278 279 280 280 281 282 283 285 285 285 286 287 288 288 289 290 291 291 292 292 293 293 293 293 294 295 296 297 297 298 298 298
269 270 270 271 271 271 271 272 273 275 276 278 280 280 280 281 283 283 284 285 285 286 287 288 289 290 290 291 291 292 293 294 294 294 294 294 294 295 296 297 297 298 298
270 271 271 271 271 270 271 272 273 275 276 278 279 280 281 282 283 283 283 284 285 285 286 288 289 290 291 291 291 291 292 293 294 294 294 294 294 295 296 297 297 297 297
271 272 272 272 272 271 273 274 274 275 277 279 281 282 282 283 283 283 284 284 284 285 287 288 289 290 291 291 291 291 292 293 293 294 294 294 294 295 296 297 297 297 297
273 273 272 272 272 274 275 277 278 278 279 280 281 282 283 283 283 283 284 284 284 285 286 288 289 290 291 292 292 293 293 293 293 294 295 295 295 295 296 296 296 296 296
275 275 275 275 276 276 277 279 280 281 281 281 282 282 283 283 284 284 284 285 285 286 286 287 289 290 292 293 293 294 295 294 294 294 294 294 295 295 295 296 296 296 296
Height
5882 5884 5885 5887 5888 5889 5890 5891 5892 5893 5893 5894 5894 5894 5895 5895 5895 5894 5894 5893 5892 5891 5890 5889 5887 5886 5885 5884 5883 5881 5880 5879 5877 5876 5875 5874 5873 5872 5871 5871 5870 5869 5868
5880 5882 5883 5885 5886 5888 5889 5890 5891 5892 5892 5893 5893 5893 5894 5894 5894 5893 5893 5892 5891 5890 5890 5888 5887 5886 5885 5884 5883 5882 5880 5879 5878 5877 5876 5875 5874 5872 5871 5870 5869 5868 5867
5877 5880 5882 5883 5885 5886 5888 5889 5890 5890 5891 5891 5892 5892 5893 5893 5893 5893 5892 5891 5890 5890 5889 5888 5887 5886 5885 5884 5883 5881 5880 5879 5878 5877 5876 5875 5873 5872 5871 5869 5868 5867 5866
5875 5877 5879 5881 5883 5884 5886 5887 5888 5889 5889 5890 5891 5891 5892 5892 5892 5892 5891 5890 5889 5889 5888 5887 5886 5885 5884 5883 5882 5881 5880 5879 5878 5877 5875 5874 5873 5871 5870 5868 5866 5865 5864
5873 5875 5877 5879 5881 5883 5884 5885 5886 5887 5888 5889 5889 5890 5890 5890 5890 5890 5889 5889 5888 5888 5887 5886 5885 5884 5883 5882 5881 5880 5879 5878 5877 5876 5874 5873 5872 5870 5869 5867 5865 5864 5862
5872 5873 5875 5877 5879 5881 5882 5883 5884 5885 5886 5886 5887 5888 5888 5889 5888 5888 5888 5887 5887 5886 5885 5885 5884 5883 5882 5881 5880 5879 5878 5877 5876 5875 5873 5872 5870 5869 5867 5865 5863 5862 5860
5870 5872 5873 5875 5877 5879 5880 5881 5882 5883 5884 5884 5885 5886 5886 5887 5886 5886 5886 5886 5885 5885 5884 5883 5882 5881 5880 5879 5878 5877 5877 5876 5874 5873 5871 5870 5868 5867 5865 5863 5861 5859 5858
5868 5869 5871 5873 5875 5876 5878 5879 5880 5881 5882 5882 5883 5884 5884 5884 5884 5884 5884 5884 5883 5882 5882 5881 5880 5879 5878 5877 5877 5876 5875 5874 5872 5871 5870 5868 5866 5864 5863 5861 5859 5857 5855
5866 5867 5869 5871 5873 5874 5875 5876 5877 5878 5879 5880 5881 5881 5881 5882 5882 5882 5881 5881 5880 5880 5879 5878 5878 5877 5876 5875 5875 5874 5872 5871 5870 5869 5867 5866 5864 5862 5860 5858 5856 5855 5853
5863 5865 5867 5869 5870 5871 5873 5874 5875 5875 5876 5877 5878 5878 5879 5879 5879 5879 5878 5878 5877 5877 5876 5876 5875 5874 5873 5873 5872 5871 5870 5869 5867 5866 5864 5863 5861 5859 5857 5855 5853 5851 5850
5861 5863 5864 5866 5867 5869 5870 5871 5872 5872 5873 5874 5875 5875 5876 5876 5876 5875 5875 5874 5874 5874 5873 5872 5872 5871 5870 5870 5869 5868 5867 5866 5864 5863 5861 5860 5858 5856 5854 5852 5850 5849 5847
5859 5861 5862 5864 5865 5866 5867 5868 5869 5869 5870 5871 5872 5872 5872 5872 5872 5872 5871 5871 5870 5870 5869 5869 5868 5868 5867 5866 5865 5864 5863 5862 5861 5859 5858 5856 5855 5853 5851 5849 5847 5845 5843
5857 5858 5860 5861 5862 5863 5864 5865 5865 5866 5867 5868 5868 5868 5868 5868 5868 5868 5867 5867 5866 5866 5865 5865 5864 5864 5863 5862 5861 5860 5859 5858 5857 5855 5854 5852 5851 5849 5847 5845 5843 5841 5839
5855 5856 5857 5858 5859 5860 5861 5861 5862 5863 5863 5864 5864 5864 5864 5864 5864 5864 5863 5863 5862 5862 5861 5861 5860 5859 5858 5857 5857 5856 5855 5853 5852 5851 5849 5848 5846 5844 5842 5840 5838 5836 5834
5852 5853 5854 5855 5856 5857 5857 5858 5858 5859 5860 5860 5860 5860 5860 5860 5860 5859 5859 5858 5858 5857 5857 5856 5855 5855 5854 5853 5852 5851 5850 5848 5847 5846 5844 5842 5841 5839 5837 5835 5833 5831 5828
5849 5850 5851 5852 5852 5853 5854 5854 5855 5855 5856 5856 5856 5856 5856 5856 5855 5855 5854 5854 5853 5852 5852 5851 5850 5850 5848 5847 5846 5845 5844 5843 5841 5840 5838 5837 5835 5833 5831 5829 5826 5824 5822
5846 5847 5848 5848 5849 5849 5850 5850 5851 5851 5851 5851 5851 5851 5851 5851 5850 5850 5849 5849 5848 5847 5846 5846 5845 5844 5843 5842 5841 5839 5838 5837 5835 5834 5832 5831 5829 5827 5824 5822 5820 5817 5814
5843 5843 5844 5845 5845 5845 5845 5846 5846 5846 5847 5847 5846 5846 5846 5846 5845 5845 5844 5843 5842 5842 5841 5840 5839 5838 5837 5836 5835 5833 5832 5831 5829 5827 5826 5824 5822 5819 5817 5815 5812 5809 5806
5839 5840 5840 5840 5841 5841 5841 5841 5841 5841 5842 5842 5841 5841 5841 5840 5840 5839 5839 5838 5837 5836 5835 5834 5833 5832 5831 5829 5828 5827 5825 5824 5822 5820 5818 5816 5814 5811 5809 5807 5804 5801 5798
5835 5835 5836 5836 5836 5836 5836 5836 5836 5836 5836 5836 5836 5835 5835 5835 5834 5833 5833 5832 5831 5830 5829 5828 5827 5826 5824 5823 5821 5819 5818 5816 5815 5813 5810 5808 5805 5803 5800 5797 5794 5791 5788
5830 5831 5831 5831 5831 5831 5831 5831 5831 5831 5831 5830 5830 5829 5829 5828 5828 5827 5826 5825 5824 5823 5822 5821 5820 5819 5817 5816 5814 5812 5810 5808 5806 5804 5802 5799 5796 5793 5790 5787 5784 5781 5777
5825 5825 5825 5826 5826 5825 5826 5826 5825 5825 5825 5824 5824 5823 5823 5822 5821 5820 5819 5818 5817 5816 5815 5814 5813 5811 5809 5808 5806 5803 5801 5799 5797 5794 5792 5789 5786 5783 5780 5777 5773 5770 5766
5819 5820 5820 5820 5820 5820 5819 5819 5819 5818 5818 5817 5817 5816 5816 5815 5814 5814 5812 5811 5810 5809 5808 5806 5805 5803 5801 5799 5797 5795 5792 5790 5787 5784 5782 5779 5776 5773 5769 5766 5762 5758 5754
5813 5813 5813 5814 5814 5813 5813 5813 5812 5812 5811 5811 5810 5809 5809 5808 5807 5806 5805 5804 5802 5801 5800 5798 5796 5794 5793 5790 5788 5785 5782 5780 5777 5774 5771 5768 5765 5761 5758 5754 5750 5746 5742
5807 5807 5807 5807 5807 5806 5806 5805 5805 5804 5804 5803 5802 5801 5801 5800 5799 5798 5796 5795 5794 5792 5791 5789 5787 5785 5783 5780 5778 5775 5772 5769 5766 5763 5760 5756 5753 5750 5746 5742 5737 5733 5729
5800 5800 5800 5800 5799 5799 5799 5798 5797 5796 5796 5795 5794 5793 5792 5791 5790 5789 5787 5785 5784 5782 5781 5779 5777 5775 5772 5770 5767 5764 5761 5758 5755 5751 5748 5744 5740 5737 5733 5729 5724 5720 5715